FW4292 Weather Reports


time (UTC)temp
C
wind
direction
speed
KPH
gust
KPH
rain 1hr
cm
rain 24hr
cm
rain mn
cm
humidity
%
barometer
mb
20260507010036 9 209 4.8 9.7 0.03 1.45 1.45 89 1006.6
20260507004539 10 200 4.8 9.7 0.03 1.45 1.45 89 1006.6
20260507003032 10 19 4.8 16.1 0.03 1.45 1.45 89 1006.1
20260507001528 10 267 3.2 8.0 0.03 1.42 1.42 89 1006.1
20260507000027 11 198 3.2 14.5 0.05 1.42 1.42 89 1005.9
20260506234533 12 166 3.2 11.3 0.05 1.42 1.42 90 1005.4
20260506233020 13 235 1.6 14.5 0.10 1.42 1.42 91 1005.2
20260506231531 13 277 6.4 14.5 0.38 1.42 1.42 92 1005.0
20260506230019 13 213 8.0 14.5 0.46 1.40 1.40 92 1004.9
20260506224519 13 188 6.4 12.9 0.48 1.42 1.40 92 1004.9
20260506223027 14 247 4.8 14.5 0.43 1.35 1.32 91 1005.0
20260506221516 14 240 6.4 11.3 0.15 1.04 1.02 91 1005.1
20260506220019 14 192 8.0 14.5 0.15 0.97 0.94 91 1005.1
20260506214515 14 225 8.0 22.5 0.18 1.09 0.91 91 1005.1
20260506213015 14 184 9.7 19.3 0.28 1.07 0.89 91 1004.9
20260506211516 14 171 6.4 16.1 0.36 1.04 0.86 91 1005.0
20260506210014 14 198 6.4 14.5 0.33 0.97 0.79 91 1005.0
20260506204512 14 208 6.4 17.7 0.30 0.91 0.71 91 1005.1
20260506203018 14 206 11.3 19.3 0.20 0.79 0.61 91 1005.2
20260506201515 14 196 9.7 19.3 0.13 0.69 0.51 91 1005.2
20260506200007 14 156 8.0 16.1 0.10 0.64 0.46 91 1005.5
20260506194506 14 198 9.7 16.1 0.10 0.61 0.43 90 1005.8
20260506193004 14 191 12.9 20.9 0.10 0.58 0.41 90 1005.9
20260506191504 14 223 9.7 20.9 0.10 0.56 0.38 90 1005.9
20260506190003 14 196 11.3 27.4 0.10 0.53 0.36 90 1006.0
20260506184501 14 203 11.3 19.3 0.15 0.51 0.33 90 1006.0
20260506183104 14 170 12.9 25.7 0.18 0.48 0.30 89 1006.3
20260506181558 14 163 11.3 29.0 0.20 0.46 0.28 89 1006.6
20260506180056 15 193 9.7 19.3 0.20 0.43 0.25 89 1006.8
20260506174552 15 208 4.8 12.9 0.18 0.38 0.20 88 1007.0
20260506173053 15 204 3.2 9.7 0.13 0.30 0.13 87 1007.2
20260506171552 15 217 4.8 11.3 0.08 0.25 0.08 86 1007.2
20260506170106 15 219 4.8 11.3 0.05 0.23 0.05 84 1007.3
20260506164546 15 231 1.6 4.8 0.03 0.20 0.03 82 1007.3
20260506163057 16 196 0.0 4.8 0.00 0.18 0.00 81 1007.3
20260506161544 15 186 0.0 3.2 0.00 0.18 0.00 81 1007.3
20260506160041 15 186 0.0 4.8 0.00 0.18 0.00 82 1007.7
20260506154536 15 186 1.6 8.0 0.00 0.18 0.00 80 1008.5
20260506153034 15 171 8.0 16.1 0.00 0.18 0.00 77 1008.8
20260506151533 15 202 1.6 8.0 0.00 0.18 0.00 77 1008.6
20260506150029 15 117 3.2 6.4 0.00 0.18 0.00 77 1008.5
20260506144531 15 175 0.0 4.8 0.00 0.18 0.00 77 1008.4
20260506143032 15 170 3.2 8.0 0.00 0.18 0.00 77 1008.6
20260506141526 15 181 4.8 9.7 0.00 0.18 0.00 77 1008.6
20260506140025 15 196 1.6 4.8 0.00 0.18 0.00 79 1008.6
20260506134523 14 198 3.2 8.0 0.00 0.18 0.00 79 1008.5
20260506133022 14 171 3.2 8.0 0.00 0.18 0.00 79 1008.9
20260506131523 14 205 4.8 9.7 0.00 0.18 0.00 79 1009.2
20260506130021 14 112 4.8 9.7 0.00 0.18 0.00 79 1009.1
20260506124517 13 175 3.2 9.7 0.00 0.18 0.00 79 1009.1
20260506123018 13 148 3.2 12.9 0.00 0.18 0.00 79 1008.7
20260506121522 13 190 9.7 14.5 0.00 0.18 0.00 79 1008.9
20260506120114 13 182 4.8 17.7 0.00 0.18 0.00 79 1009.1
20260506114511 13 178 6.4 12.9 0.00 0.18 0.00 79 1009.0
20260506113018 13 208 6.4 9.7 0.00 0.18 0.00 79 1008.9
20260506111508 13 209 4.8 11.3 0.00 0.18 0.00 78 1009.0
20260506110009 13 192 4.8 9.7 0.00 0.18 0.00 80 1009.0
20260506104505 12 166 1.6 8.0 0.00 0.18 0.00 81 1009.0
20260506103009 12 183 3.2 8.0 0.00 0.18 0.00 83 1009.4
20260506101503 12 5 1.6 4.8 0.00 0.18 0.00 83 1009.1
20260506100003 12 5 0.0 3.2 0.00 0.18 0.00 84 1008.8
20260506094502 12 5 1.6 4.8 0.00 0.18 0.00 84 1008.8
20260506093100 12 5 1.6 3.2 0.00 0.18 0.00 83 1008.7
20260506091607 12 5 1.6 6.4 0.00 0.18 0.00 83 1009.0
20260506084614 12 5 3.2 6.4 0.00 0.18 0.00 82 1009.0
20260506083053 13 297 1.6 4.8 0.00 0.18 0.00 81 1009.2
20260506081549 13 292 1.6 3.2 0.00 0.18 0.00 79 1008.8
20260506073051 15 240 1.6 8.0 0.00 0.18 0.00 76 1009.0
20260506071639 15 247 3.2 8.0 0.00 0.18 0.00 74 1008.9
20260506061547 15 192 6.4 14.5 0.00 0.18 0.00 74 1008.7
20260506044524 16 213 3.2 9.7 0.00 0.18 0.00 74 1008.8
20260506043035 16 191 1.6 8.0 0.00 0.18 0.00 74 1008.7
20260506041515 16 223 3.2 9.7 0.00 0.18 0.00 74 1008.6
20260506040013 16 227 8.0 12.9 0.00 0.18 0.18 74 1008.7
20260506034512 16 250 6.4 14.5 0.00 0.18 0.18 76 1008.7
20260506033017 15 254 6.4 11.3 0.00 0.18 0.18 75 1008.7
20260506031512 16 277 0.0 3.2 0.00 0.18 0.18 75 1008.8
20260506030013 16 278 1.6 9.7 0.00 0.18 0.18 73 1008.8
20260506024527 16 223 4.8 11.3 0.00 0.18 0.18 72 1008.6
20260506023009 16 232 3.2 9.7 0.00 0.18 0.18 71 1008.6
20260506021509 16 217 6.4 9.7 0.00 0.18 0.18 70 1008.4
20260506020009 16 236 6.4 12.9 0.00 0.18 0.18 70 1008.4
20260506014509 16 234 8.0 14.5 0.00 0.18 0.18 70 1008.7
20260506013007 16 210 6.4 12.9 0.00 0.18 0.18 70 1008.6
20260506011507 16 195 4.8 8.0 0.00 0.18 0.18 70 1008.6